RH
29 29 34 26 52 85 80 86 70 60 67 43 54 42 20 18 30 88 97 100 92 50 63 62 56 70 81 36 81 95 94 79 60 56 52 44 48 50 52 59 74 86 71 67
38 39 24 70 89 77 94 95 77 67 66 51 70 44 21 21 20 21 60 100 75 75 58 52 55 54 39 45 92 99 82 79 72 59 46 47 48 54 76 96 68 64 67 88
37 35 82 91 97 98 95 82 64 58 61 60 72 66 33 23 28 33 23 24 38 51 48 43 30 29 36 72 80 67 65 68 64 56 54 58 67 80 100 69 71 76 96 93
77 91 97 98 99 91 92 81 82 70 62 68 76 81 57 30 27 30 32 28 28 34 30 30 35 42 56 95 100 85 71 70 61 59 64 81 98 88 70 98 92 96 100 99
100 98 99 100 97 92 97 90 87 86 74 75 83 85 86 55 41 40 48 38 43 51 51 56 73 81 86 81 86 76 71 68 66 76 67 74 60 94 92 99 99 99 98 97
100 100 99 100 98 98 98 96 81 82 80 82 79 85 88 88 72 49 56 67 75 83 79 75 73 73 73 72 70 91 79 97 70 98 98 99 98 99 98 99 97 78 76 86
98 100 95 94 80 67 69 61 65 68 66 69 77 77 84 91 99 97 62 52 59 57 59 66 75 81 86 62 99 93 95 100 99 99 98 98 97 97 94 79 71 49 42 43
98 98 75 69 59 57 47 51 67 73 77 65 73 77 74 74 93 100 98 97 93 95 78 90 98 98 98 99 92 97 98 98 99 98 98 89 76 71 51 39 42 47 54 68
94 79 74 65 55 48 46 56 65 80 86 81 69 77 85 77 74 100 99 95 92 90 97 98 96 97 94 97 98 88 77 78 74 71 66 41 39 42 41 45 54 65 71 69
80 77 65 54 47 43 49 58 70 85 92 83 87 87 84 85 85 87 99 100 99 100 96 90 90 88 85 78 78 76 70 48 37 38 40 41 42 40 49 61 64 64 60 58
63 56 58 48 53 55 51 57 72 83 92 92 87 91 92 91 85 95 97 92 92 92 91 87 85 84 78 68 46 38 41 40 38 39 42 43 49 55 57 53 54 58 57 51
55 51 50 51 50 56 64 64 72 84 91 97 89 87 90 97 94 88 89 96 94 93 88 73 50 40 39 42 43 40 35 36 41 47 53 59 59 51 51 58 60 54 41 34
47 42 42 48 51 50 56 70 82 93 93 92 90 77 80 83 98 97 95 93 93 69 52 54 55 53 48 42 40 44 53 60 62 63 61 52 50 58 63 58 48 38 37 39
50 59 62 67 62 57 55 68 88 100 100 100 93 95 93 95 98 96 100 100 93 75 69 61 56 54 56 59 64 65 63 64 64 60 54 60 68 65 58 46 43 40 30 29
48 48 59 63 64 59 61 74 86 90 98 100 96 95 94 96 98 97 96 94 89 75 64 62 66 69 71 70 68 68 71 69 63 62 71 72 63 52 47 42 34 31 31 27
53 64 63 67 65 70 72 76 84 81 90 100 97 96 94 87 92 96 95 91 86 71 69 75 75 75 76 76 80 82 81 72 72 75 72 58 50 49 43 36 33 30 20 10
65 69 75 72 72 83 83 84 98 94 89 94 100 99 90 88 98 100 100 98 81 74 82 83 84 86 92 93 91 90 79 77 79 72 57 53 54 46 41 34 28 16 12 11
74 78 79 78 74 77 80 91 99 98 97 99 99 99 100 98 100 100 99 90 85 92 93 93 94 98 97 96 94 86 81 83 72 59 57 56 51 42 36 29 17 13 13 14
82 81 82 84 86 80 79 93 99 100 100 96 100 99 99 100 100 100 96 96 99 96 94 95 96 96 98 99 93 86 87 75 63 59 56 51 46 37 24 13 8 7 7 5
92 99 100 88 93 87 86 92 98 100 98 97 96 97 96 97 99 97 100 98 95 96 95 96 97 97 98 94 88 87 78 70 65 65 55 51 40 24 11 8 7 6 3 2
100 100 100 97 96 95 95 89 98 100 100 98 98 99 99 100 100 100 97 96 96 96 97 94 91 91 90 86 86 82 79 76 76 65 58 44 30 13 11 10 5 3 2 7
100 99 99 100 100 100 100 100 100 100 99 100 100 100 99 100 100 98 97 98 99 94 82 85 90 88 85 89 90 84 84 78 70 63 50 23 10 10 6 4 3 4 11 16
100 100 100 100 98 99 100 100 100 100 100 100 99 100 99 100 100 100 100 100 98 83 88 98 93 87 89 95 94 88 83 70 63 55 24 11 10 7 5 3 7 16 18 16
98 99 100 100 100 100 100 100 99 100 100 100 100 100 100 100 100 100 100 99 89 86 93 93 90 88 90 95 95 88 76 65 55 18 12 11 8 6 3 7 17 12 14 16
89 90 94 95 97 99 100 100 100 100 100 100 100 100 100 100 100 100 96 82 84 86 84 87 91 88 89 93 94 81 71 55 17 14 16 9 7 4 5 17 12 12 14 19
98 99 95 86 83 84 93 100 99 99 100 100 100 100 100 100 98 91 87 90 90 91 95 99 92 87 90 95 87 76 58 25 16 17 12 8 5 4 15 14 14 20 27 39
69 79 82 82 86 86 84 86 97 100 99 100 100 100 100 98 92 92 96 98 98 100 100 93 89 92 94 89 79 64 36 20 18 15 9 7 4 6 19 22 35 42 48 53
Wind_Speed
19 15 15 14 16 14 17 16 22 16 16 21 32 37 35 37 46 34 20 22 24 22 24 26 29 34 27 26 31 35 30 32 38 42 40 40 40 38 37 38 34 39 42 35
16 16 12 12 8 9 13 12 16 14 13 22 33 36 33 30 33 26 14 18 11 14 18 20 20 19 17 14 24 28 29 26 35 35 33 32 31 34 34 28 35 37 46 41
16 12 9 8 8 8 8 14 18 17 17 22 24 30 32 27 26 22 10 3 5 2 9 11 9 8 13 16 22 25 26 28 29 27 26 26 26 24 26 32 31 36 23 36
11 6 7 6 4 4 6 11 17 19 18 25 25 26 29 26 24 21 15 8 8 10 8 8 13 19 22 21 22 23 25 27 26 23 22 24 24 28 31 33 38 41 39 43
8 7 5 3 3 1 4 5 11 16 20 21 26 21 25 24 21 20 19 17 14 12 12 16 20 21 16 18 21 22 23 20 17 17 19 23 25 31 27 33 32 38 41 43
9 9 6 4 3 2 4 4 8 15 17 18 23 23 21 20 21 16 13 12 13 13 11 10 11 13 14 17 17 10 9 14 16 28 26 29 27 24 35 33 36 34 34 37
10 12 7 6 5 4 6 9 12 13 15 16 16 19 21 21 20 19 9 7 7 8 9 11 16 21 14 19 13 16 11 14 27 27 23 27 27 32 25 34 31 32 36 40
9 10 7 5 4 5 8 11 13 14 13 14 13 12 13 16 18 15 15 11 10 9 11 8 3 8 10 12 12 15 24 12 13 15 15 17 18 20 24 28 32 36 40 42
10 9 6 4 4 5 8 10 11 11 12 12 13 12 11 11 11 13 14 9 10 11 8 10 7 8 7 11 10 1 2 1 4 8 10 15 20 24 28 32 35 38 40 41
10 11 7 7 5 6 8 10 10 10 10 11 10 11 11 10 9 10 10 10 12 11 10 10 11 11 11 8 5 2 2 2 6 11 16 20 23 28 31 34 35 36 38 38
16 15 12 13 13 12 10 10 10 8 8 8 8 9 9 10 8 6 7 9 9 8 7 8 7 7 6 6 3 3 7 11 14 17 20 24 27 29 32 33 35 36 38 42
19 16 17 18 16 15 13 13 12 9 9 8 9 11 11 9 8 7 3 4 4 4 5 6 6 7 6 7 8 11 13 16 18 21 23 25 28 31 33 34 35 38 42 46
18 17 18 16 18 17 17 16 14 12 11 10 10 11 12 9 9 5 2 7 1 2 2 4 5 6 7 9 12 14 16 18 20 23 26 29 31 32 32 35 38 42 47 53
16 18 18 19 18 17 17 17 15 13 11 11 11 8 10 8 7 6 8 7 4 2 4 6 8 10 12 14 16 18 19 21 24 27 29 29 29 31 35 39 43 48 52 57
20 20 19 19 16 15 17 17 15 14 12 13 11 11 10 9 12 8 6 7 5 6 8 9 11 14 16 17 19 20 22 24 27 29 28 28 32 34 38 42 46 51 56 62
20 19 19 16 15 17 16 15 16 15 14 13 14 15 14 15 12 11 11 11 8 10 12 14 16 19 20 21 22 23 24 27 29 26 28 31 34 38 41 46 50 56 62 67
19 17 16 17 18 16 13 13 13 14 14 14 19 17 20 14 11 13 13 11 11 13 15 17 20 22 22 23 24 24 26 29 26 28 31 35 38 40 46 50 56 62 69 77
16 15 17 20 20 18 16 14 14 15 16 17 13 12 10 12 12 11 11 13 14 16 17 20 23 24 23 25 25 26 28 26 28 31 34 37 39 45 50 55 62 70 77 85
15 16 17 19 20 19 17 16 16 16 16 16 14 16 16 14 14 15 14 16 17 18 20 23 24 24 25 25 26 28 26 28 31 33 36 38 44 50 54 60 69 76 84 82
16 16 16 16 18 19 19 18 17 17 17 18 18 17 16 16 18 18 18 17 18 20 22 24 24 24 24 25 28 27 28 30 32 35 38 43 48 52 59 68 77 83 75 49
11 12 13 17 16 18 20 19 16 17 19 21 21 21 18 19 19 17 16 18 20 21 23 23 23 23 25 27 27 28 30 33 35 37 41 47 52 56 67 74 81 73 44 15
10 14 14 12 13 13 19 17 21 23 26 23 22 19 17 17 17 18 19 20 21 22 23 23 23 24 27 28 27 29 32 34 36 40 44 49 54 64 70 75 70 39 15 6
6 8 10 12 13 12 13 16 19 21 22 19 17 16 18 18 21 20 20 21 22 23 23 23 24 26 29 28 28 31 33 35 38 40 46 52 60 68 72 68 35 15 12 6
16 13 11 10 14 17 17 17 16 16 17 18 20 20 21 20 20 20 21 22 22 23 24 25 26 28 30 28 30 32 34 36 37 41 48 55 65 70 68 38 16 14 10 5
22 21 21 19 18 16 16 19 22 24 23 21 19 19 20 20 20 21 22 23 23 24 24 24 26 29 29 28 30 32 34 35 38 44 52 58 68 65 46 18 15 12 9 7
24 26 28 28 26 24 24 24 23 22 22 23 22 21 21 21 23 23 23 23 23 24 24 26 27 28 27 28 29 32 32 34 40 47 53 62 65 54 21 13 11 10 9 9
31 29 27 26 26 28 28 29 28 27 27 26 25 24 25 26 25 24 24 24 24 25 27 28 28 26 26 27 29 30 32 37 43 50 54 64 58 35 14 10 9 9 10 12
Wind_Direction
261 269 273 272 280 292 304 319 339 1 352 342 346 338 328 323 320 317 302 268 275 276 255 243 236 246 242 241 224 219 215 212 213 220 225 230 233 241 248 252 258 262 263 267
266 273 275 276 276 296 318 338 344 1 349 341 351 347 343 335 343 339 319 287 300 262 237 227 229 225 256 239 226 198 212 210 211 218 225 229 235 240 245 256 261 269 267 256
259 258 249 259 282 302 311 346 359 14 5 357 353 353 354 352 359 9 350 332 294 205 191 189 183 216 197 182 178 188 202 206 208 214 220 226 237 246 237 261 267 264 265 269
246 255 240 247 246 273 5 30 21 16 20 8 6 2 1 4 14 21 33 70 125 163 176 185 176 166 160 171 176 183 193 202 205 209 216 217 233 249 252 256 265 239 247 259
234 214 195 139 143 198 31 12 9 15 9 9 9 7 8 5 13 18 36 45 56 85 120 139 143 148 169 175 176 182 190 196 200 208 221 235 239 248 239 250 247 259 262 280
215 208 197 227 236 274 323 331 334 342 353 358 5 6 12 12 13 13 26 72 85 84 89 103 119 137 153 151 141 171 184 197 210 216 225 240 244 250 239 256 263 287 288 290
211 215 226 238 270 312 325 343 336 346 350 347 360 357 10 13 13 12 37 55 69 80 91 111 129 126 132 145 183 197 191 256 207 228 208 237 255 249 279 285 289 293 294 295
214 217 243 238 276 314 338 333 340 345 359 353 350 350 353 10 17 19 40 67 81 108 107 125 177 98 184 165 196 182 219 210 243 215 244 293 296 289 286 292 296 296 297 300
221 222 225 257 283 327 329 326 344 348 4 360 350 355 360 359 12 34 43 39 34 33 53 102 68 97 116 164 176 157 129 303 304 305 295 287 292 295 298 298 298 300 299 298
227 233 240 244 274 302 307 320 330 339 358 3 354 3 13 13 9 16 29 52 70 79 81 83 85 83 86 89 83 56 28 306 300 301 299 298 299 301 302 300 299 300 303 305
233 238 247 261 275 287 288 295 310 326 335 357 351 1 12 16 13 15 22 24 27 38 60 72 78 82 85 88 77 336 316 317 312 306 303 304 303 302 303 305 306 307 306 307
238 248 253 265 271 276 278 281 284 292 311 320 333 336 339 349 352 345 355 34 13 39 54 51 47 39 21 352 328 316 310 306 303 300 300 304 308 309 309 308 307 307 306 307
244 251 260 266 271 273 273 271 272 274 288 298 308 324 325 323 317 291 297 356 24 81 44 31 4 339 320 308 304 304 302 303 306 310 312 313 311 310 309 308 307 307 308 308
247 249 257 261 265 269 267 266 261 261 275 281 292 310 331 324 324 268 261 291 193 284 316 318 317 315 311 308 306 307 308 311 315 315 313 311 310 309 309 309 309 310 311 311
245 252 259 267 267 268 265 264 262 257 260 279 279 278 301 306 314 287 238 217 233 272 289 299 303 306 308 308 310 312 313 314 314 313 311 310 310 311 311 312 313 314 315 314
242 245 249 254 262 266 268 265 266 266 256 271 277 287 285 294 295 227 241 238 253 280 292 302 308 312 312 312 314 313 314 315 313 310 309 310 311 313 314 316 317 317 315 316
231 235 245 256 262 262 262 261 268 258 256 265 290 275 275 275 273 241 238 242 273 287 296 304 309 311 310 312 312 312 312 311 308 308 309 311 312 315 318 318 317 317 317 316
229 243 250 250 253 257 255 256 262 254 253 277 264 282 248 258 249 229 244 265 277 287 297 306 307 306 308 309 309 310 311 307 308 310 311 314 316 319 319 319 319 318 318 315
240 252 261 262 250 253 251 252 255 255 256 258 266 270 264 259 246 246 261 270 279 292 298 300 301 304 305 305 308 309 306 307 310 312 315 317 320 322 323 322 322 322 318 321
246 253 261 268 248 248 247 252 249 263 258 256 255 264 251 244 248 257 268 277 291 295 298 299 302 303 303 305 307 304 306 309 312 315 318 321 323 325 325 328 326 324 326 327
230 247 259 259 251 244 244 247 268 241 246 248 256 269 262 259 262 263 274 287 291 294 297 300 300 301 304 306 303 303 308 313 316 318 321 325 326 327 331 327 327 329 331 337
237 238 232 240 248 242 244 264 260 249 244 250 258 251 255 257 262 275 282 283 290 295 298 298 298 301 305 305 303 308 314 318 319 321 324 327 332 333 331 331 331 338 354 34
260 248 252 242 228 215 231 220 252 246 243 242 244 245 251 262 275 276 278 284 289 293 295 297 301 304 308 307 306 312 316 319 321 324 328 333 335 335 335 333 340 358 357 11
280 277 267 254 245 244 239 234 231 234 241 244 250 256 264 267 270 273 279 284 290 292 296 300 304 307 310 307 308 313 316 319 325 330 334 336 337 339 335 337 341 347 349 349
261 268 274 273 267 261 255 251 249 247 246 244 249 255 260 265 270 276 281 286 289 294 298 301 304 307 307 304 309 314 318 325 329 332 333 335 340 338 338 330 335 343 346 334
261 260 261 264 267 269 269 269 265 261 255 245 244 250 263 268 273 277 280 284 290 296 299 301 303 305 302 305 310 315 321 325 330 333 334 337 340 336 329 324 332 344 348 343
265 265 264 264 264 264 265 263 262 263 264 264 264 262 262 264 269 272 277 283 289 294 297 300 303 301 302 307 312 317 321 326 331 334 335 337 337 335 314 314 327 335 338 339